This demonstration page uses our WeatherBlox Daily Observations layout. Learn more.

Hourly Observations for March 26, 2016

Temp ( °F °C ) Dew Point ( °F °C ) Humidity (%) Winds ( mph kmh ) Pressure ( in mb ) Visibility ( mi km ) Precip ( " mm )
12:15 am 00:15 Clear 48 9 37 3 66 66 NNW 9 15 30.15 1021 10 16.09344 0 0
12:35 am 00:35 Clear 46 8 37 3 71 71 N 8 13 30.15 1021 10 16.09344 0 0
12:55 am 00:55 Clear 46 8 36 2 66 66 N 7 11 30.18 1022 10 16.09344 0 0
1:15 am 01:15 Clear 46 8 36 2 66 66 N 6 9 30.18 1022 10 16.09344 0 0
1:35 am 01:35 Clear 46 8 36 2 66 66 N 6 9 30.18 1022 10 16.09344 0 0
1:55 am 01:55 Clear 45 7 36 2 71 71 NNE 6 9 30.18 1022 10 16.09344 0 0
2:15 am 02:15 Clear 45 7 36 2 71 71 N 8 13 30.18 1022 10 16.09344 0 0
2:35 am 02:35 Clear 43 6 34 1 71 71 N 10 17 30.21 1023 10 16.09344 0 0
2:55 am 02:55 Clear 43 6 34 1 71 71 N 10 17 30.21 1023 10 16.09344 0 0
3:15 am 03:15 Clear 43 6 34 1 71 71 N 9 15 30.21 1023 10 16.09344 0 0
3:35 am 03:35 Clear 41 5 34 1 76 76 NNE 7 11 30.21 1023 10 16.09344 0 0
3:55 am 03:55 Clear 41 5 32 0 70 70 NNE 5 7 30.24 1024 10 16.09344 0 0
4:15 am 04:15 Clear 41 5 32 0 70 70 NNE 3 6 30.24 1024 10 16.09344 0 0
4:35 am 04:35 Clear 41 5 32 0 70 70 NNW 5 7 30.24 1024 10 16.09344 0 0
4:55 am 04:55 Clear 39 4 32 0 75 75 Calm 30.24 1024 10 16.09344 0 0
5:15 am 05:15 Clear 39 4 32 0 75 75 N 8 13 30.24 1024 10 16.09344 0 0
5:35 am 05:35 Clear 39 4 32 0 75 75 N 6 9 30.24 1024 10 16.09344 0 0
5:55 am 05:55 Clear 37 3 32 0 81 81 N 6 9 30.27 1025 10 16.09344 0 0
6:15 am 06:15 Clear 37 3 32 0 81 81 N 6 9 30.27 1025 10 16.09344 0 0
6:35 am 06:35 Clear 37 3 32 0 81 81 N 5 7 30.27 1025 10 16.09344 0 0
6:55 am 06:55 Clear 37 3 32 0 81 81 Calm 30.27 1025 10 16.09344 0 0
7:15 am 07:15 Sunny 37 3 32 0 81 81 Calm 30.3 1026 10 16.09344 0 0
7:35 am 07:35 Sunny 37 3 32 0 81 81 Calm 30.3 1026 10 16.09344 0 0
8:15 am 08:15 Sunny 39 4 32 0 75 75 N 6 9 30.33 1027 10 16.09344 0 0
8:35 am 08:35 Sunny 41 5 32 0 70 70 NNE 9 15 30.33 1027 10 16.09344 0 0
8:55 am 08:55 Sunny 41 5 32 0 70 70 N 12 19 30.33 1027 10 16.09344 0 0
9:15 am 09:15 Sunny 43 6 32 0 66 66 NE 9 15 30.36 1028 10 16.09344 0 0
9:35 am 09:35 Sunny 43 6 32 0 66 66 NNE 12 19 30.36 1028 10 16.09344 0 0
9:55 am 09:55 Sunny 43 6 32 0 66 66 NE 8 13 30.36 1028 10 16.09344 0 0
10:15 am 10:15 Sunny 45 7 32 0 61 61 ENE 6 9 30.36 1028 10 16.09344 0 0
10:35 am 10:35 Sunny 45 7 32 0 61 61 NE 6 9 30.36 1028 10 16.09344 0 0
10:55 am 10:55 Sunny 46 8 32 0 57 57 N 3 6 30.36 1028 10 16.09344 0 0
11:15 am 11:15 Sunny 46 8 34 1 62 62 Calm 30.36 1028 10 16.09344 0 0
11:35 am 11:35 Sunny 46 8 32 0 57 57 Calm 30.36 1028 10 16.09344 0 0
11:55 am 11:55 Sunny 50 10 34 1 54 54 Calm 30.33 1027 10 16.09344 0 0
12:15 pm 12:15 Sunny 50 10 34 1 54 54 Calm 30.33 1027 10 16.09344 0 0
12:35 pm 12:35 Sunny 50 10 34 1 54 54 Calm 30.33 1027 10 16.09344 0 0
12:55 pm 12:55 Sunny 52 11 34 1 50 50 Calm 30.33 1027 10 16.09344 0 0
1:15 pm 13:15 Sunny 54 12 34 1 47 47 SE 3 6 30.33 1027 10 16.09344 0 0
1:35 pm 13:35 Sunny 54 12 34 1 47 47 SE 3 6 30.33 1027 10 16.09344 0 0
1:55 pm 13:55 Sunny 54 12 34 1 47 47 Calm 30.3 1026 10 16.09344 0 0
2:15 pm 14:15 Sunny 55 13 34 1 44 44 Calm 30.27 1025 10 16.09344 0 0
2:35 pm 14:35 Sunny 55 13 34 1 44 44 SSE 6 9 30.27 1025 10 16.09344 0 0
2:55 pm 14:55 Sunny 59 15 34 1 39 39 S 6 9 30.27 1025 10 16.09344 0 0
3:15 pm 15:15 Sunny 59 15 34 1 39 39 Calm 30.24 1024 10 16.09344 0 0
3:35 pm 15:35 Sunny 59 15 36 2 42 42 SSW 7 11 30.27 1025 10 16.09344 0 0
3:55 pm 15:55 Sunny 61 16 36 2 39 39 Calm 30.27 1025 10 16.09344 0 0
4:15 pm 16:15 Sunny 61 16 36 2 39 39 S 5 7 30.24 1024 10 16.09344 0 0
4:35 pm 16:35 Sunny 61 16 36 2 39 39 SSE 7 11 30.24 1024 10 16.09344 0 0
4:55 pm 16:55 Sunny 61 16 36 2 39 39 Calm 30.24 1024 10 16.09344 0 0
5:15 pm 17:15 Sunny 63 17 37 3 39 39 ESE 5 7 30.24 1024 10 16.09344 0 0
5:35 pm 17:35 Sunny 63 17 37 3 39 39 SE 3 6 30.24 1024 10 16.09344 0 0
5:55 pm 17:55 Sunny 61 16 37 3 42 42 S 5 7 30.24 1024 10 16.09344 0 0
6:15 pm 18:15 Sunny 63 17 37 3 39 39 S 8 13 30.24 1024 10 16.09344 0 0
6:35 pm 18:35 Sunny 61 16 39 4 45 45 S 8 13 30.24 1024 10 16.09344 0 0
6:55 pm 18:55 Sunny 61 16 39 4 45 45 SSE 5 7 30.24 1024 10 16.09344 0 0
7:15 pm 19:15 Sunny 61 16 39 4 45 45 SSE 8 13 30.27 1025 10 16.09344 0 0
7:35 pm 19:35 Clear 59 15 37 3 45 45 SSE 7 11 30.27 1025 10 16.09344 0 0
7:55 pm 19:55 Clear 59 15 39 4 48 48 SSE 7 11 30.27 1025 10 16.09344 0 0
8:15 pm 20:15 Mostly Cloudy 59 15 39 4 48 48 SE 5 7 30.27 1025 10 16.09344 0 0
8:35 pm 20:35 Cloudy 59 15 41 5 51 51 SSE 6 9 30.27 1025 10 16.09344 0 0
8:55 pm 20:55 Cloudy 59 15 41 5 51 51 SE 3 6 30.3 1026 10 16.09344 0 0
9:15 pm 21:15 Cloudy 57 14 41 5 55 55 SE 7 11 30.3 1026 10 16.09344 0 0
9:35 pm 21:35 Cloudy 55 13 41 5 59 59 ESE 7 11 30.3 1026 10 16.09344 0 0
9:55 pm 21:55 Cloudy 55 13 41 5 59 59 ESE 7 11 30.3 1026 10 16.09344 0 0
10:15 pm 22:15 Cloudy 55 13 41 5 59 59 ESE 3 6 30.3 1026 10 16.09344 0 0
10:35 pm 22:35 Cloudy 55 13 41 5 59 59 SE 6 9 30.3 1026 10 16.09344 0 0
10:55 pm 22:55 Cloudy 55 13 41 5 59 59 ESE 6 9 30.3 1026 10 16.09344 0 0
11:15 pm 23:15 Partly Cloudy 54 12 41 5 63 63 SE 5 7 30.33 1027 10 16.09344 0 0
11:35 pm 23:35 Clear 54 12 41 5 63 63 ESE 5 7 30.33 1027 10 16.09344 0 0
11:55 pm 23:55 Clear 52 11 41 5 67 67 ESE 5 7 30.33 1027 10 16.09344 0 0

Powered by AerisWeather